Location: Valley View Observatory
(41.0081°N, 76.5874°W)
Time: 23:36:07
(UTC-04:00)

Daily predictions for brighter satellites

Satellite Brightness Start Highest point End
(mag) Time Altitude Azimuth Time Altitude Azimuth Time Altitude Azimuth
Cosmos 2082 3.9 19:56:47 10° NNW 20:02:25 78° WSW 20:08:02 10° SSE
Resurs 01 Rocket 1.7 19:59:03 10° SSE 20:03:29 85° ENE 20:07:57 10° NNW
Cosmos 1975 3.2 20:01:22 10° SSE 20:05:15 43° E 20:09:09 10° NNE
Lacrosse 5 rocket 2.6 20:02:12 10° WNW 20:05:36 33° SW 20:08:52 10° SSE
ATLAS 2A CENTAUR R/B 4.2 20:05:55 10° SW 20:06:38 10° SW 20:07:16 10° SW
FengYun 1-2 T 4.3 20:02:23 10° SSE 20:07:57 68° ENE 20:13:31 10° N
Cosmos 2150 Rocket 4.2 20:07:00 10° N 20:12:01 50° ENE 20:17:03 10° SE
HJ-1C 4.0 20:11:58 10° S 20:15:14 60° W 20:18:31 10° NNW
Cosmos 1515 4.2 20:11:35 10° N 20:15:14 40° ENE 20:18:51 10° SSE
METEOR-M 4.4 20:10:43 10° S 20:16:03 76° WSW 20:21:26 10° NNW
Cosmos 2084 3.6 20:15:10 10° NW 20:19:14 75° SW 20:23:31 10° SSE
Cosmos 1898 Rocket 3.6 20:14:13 10° NNW 20:19:29 63° ENE 20:24:39 10° SSE
Cosmos 468 Rocket 3.9 20:21:41 10° S 20:26:45 67° ESE 20:31:51 10° NNE
Cosmos 841 Rocket 4.2 20:25:56 10° SSE 20:30:26 30° E 20:34:55 10° NE
Cosmos 1697 Rocket 2.6 20:25:05 10° SSW 20:30:43 78° ESE 20:36:23 10° NNE
Meteor 1-12 Rocket 4.5 20:30:01 10° SSW 20:35:46 81° W 20:41:41 10° N
Cosmos 2173 Rocket 4.4 20:29:52 10° SSE 20:35:49 44° E 20:41:45 10° NNE
H-2A R/B 3.9 20:35:01 12° E 20:36:21 14° ENE 20:38:28 10° NNE
Cosmos 1743 3.4 20:33:16 10° SSE 20:36:48 34° E 20:40:22 10° NNE
Cosmos 1626 Rocket 3.7 20:33:44 10° N 20:38:08 75° W 20:42:27 10° S
Cosmos 1066 Rocket 4.3 20:35:30 10° N 20:41:13 68° E 20:47:00 10° SSE
Cosmos 1814 Rocket 4.0 20:36:28 10° SSW 20:41:47 78° ESE 20:47:06 10° NNE
CZ-4B DEB 3.6 20:39:08 10° S 20:42:20 53° W 20:45:35 10° NNW
Helios 1B rocket 4.4 20:39:16 10° N 20:42:57 33° WNW 20:46:38 10° SW
Lacrosse 5 2.1 20:41:40 10° NW 20:46:42 66° SW 20:50:59 14° SSE
SL-16 R/B 3.3 20:42:34 10° SSE 20:46:50 23° E 20:51:09 10° NE
Cosmos 1939 Rocket 4.0 20:46:28 20° ESE 20:48:23 29° ENE 20:51:59 10° N
Cosmos 1602 Rocket 4.3 20:44:53 10° NNW 20:49:15 56° W 20:53:32 10° S
Cosmos 1758 Rocket 4.4 20:48:23 10° NNE 20:52:12 29° ENE 20:53:45 23° ESE
Iridium 4 Rocket 3.3 20:50:03 10° N 20:54:54 81° W 20:59:20 10° S
USA 186 1.7 20:52:31 11° S 20:55:23 67° W 20:58:07 10° NNW
Cosmos 1980 Rocket 2.1 20:49:59 10° SSW 20:55:38 76° ESE 21:01:21 10° NNE
Cosmos 2100 Rocket 3.9 20:49:43 10° S 20:55:56 70° E 21:02:06 10° NNE
SPOT 5 4.1 20:57:22 21° E 20:58:46 23° ENE 21:02:29 10° NNE
YAOGAN 11 4.3 20:58:11 20° SE 21:01:04 55° ENE 21:05:25 10° N
FENGYUN 3A 4.2 20:56:06 10° S 21:01:22 59° W 21:06:40 10° NNW
ALOS 3.2 20:59:21 10° S 21:03:51 48° W 21:08:23 10° NNW
H-2A R/B 3.8 21:03:26 10° S 21:07:12 46° W 21:11:01 10° NNW
deb Chang Zheng 4 4.4 21:06:35 10° NE 21:10:32 30° E 21:10:32 30° E
Cosmos 1666 3.0 21:13:59 41° ESE 21:14:11 42° E 21:17:47 10° NNE
RESURS DK-1 3.5 21:10:28 10° NW 21:14:22 41° WSW 21:17:35 14° S
Envisat 3.1 21:12:39 28° SE 21:15:07 55° ENE 21:20:05 10° N
Cosmos 2061 Rocket 4.0 21:09:09 10° S 21:15:27 89° E 21:21:43 10° N
CZ-4 DEB 2.5 21:14:51 52° SSE 21:15:31 82° ENE 21:18:41 10° N
Cosmos 1937 Rocket 4.1 21:11:06 10° NNW 21:16:17 57° WSW 21:21:07 12° S
OAO 2 Rocket 4.3 21:11:53 10° WSW 21:16:20 33° SSW 21:17:57 27° SSE
Cosmos 1459 Rocket 3.9 21:10:25 10° S 21:16:28 87° W 21:22:38 10° N
Cosmos 1842 3.5 21:14:44 10° N 21:18:29 44° E 21:18:45 43° E
Cosmos 2263 Rocket 3.3 21:14:19 10° N 21:18:58 26° NE 21:20:21 24° ENE
Tiangong 1 2.4 21:18:18 10° W 21:21:02 28° SSW 21:21:05 28° SSW
Cosmos 1606 Rocket 3.4 21:17:05 10° S 21:21:29 85° E 21:25:58 10° N
Cosmos 990 Rocket 4.2 21:16:57 10° NNW 21:22:10 69° WSW 21:25:45 20° S
Cosmos 2058 Rocket 3.1 21:22:10 36° SSE 21:23:45 56° E 21:28:10 10° NNE
Cosmos 1725 Rocket 4.1 21:23:02 23° SSE 21:26:46 54° E 21:32:50 10° NNE
Cosmos 1340 3.0 21:25:57 10° NNW 21:29:42 63° W 21:31:12 33° SSW
Cosmos 2322 Rocket 2.2 21:25:39 10° S 21:31:07 57° ESE 21:36:37 10° NNE
ERS-1 Rocket 3.0 21:29:00 26° S 21:31:53 80° WSW 21:36:56 10° NNW
MetOp-A 4.5 21:31:13 40° ESE 21:32:26 47° ENE 21:37:34 10° N
Cosmos 1726 Rocket 3.9 21:40:10 18° SSW 21:43:20 65° W 21:47:45 10° N
Cosmos 1763 Rocket 4.4 21:40:57 10° SW 21:45:50 48° WNW 21:50:46 10° N
Meteor 2-9 Rocket 4.0 21:42:27 23° S 21:45:56 86° E 21:51:20 10° N
Cosmos 2233 Rocket 4.2 21:46:04 45° ESE 21:46:47 47° E 21:52:43 10° NNE
H-2A R/B 3.6 21:54:29 21° NE 21:54:29 21° NE 21:57:17 10° NNE
Cosmos 783 Rocket 4.4 21:54:20 65° ESE 21:54:23 65° ESE 21:59:36 10° NNE
Meteor 2-5 Rocket 4.3 21:51:55 10° N 21:57:20 41° ENE 21:57:20 41° ENE
Meteor 1-15 Rocket 4.3 21:56:10 26° SSW 21:59:37 84° W 22:05:30 10° N
BREEZE-M DEB (TANK) 2.7 21:57:24 10° WNW 21:59:21 56° WNW 21:59:21 56° WNW
ASTEX 1 3.5 21:59:09 10° N 22:04:10 75° W 22:05:15 54° SSW
Cosmos 405 Rocket 4.2 22:02:29 10° N 22:04:31 30° N 22:04:31 30° N
Cosmos 1125 Rocket 3.6 22:02:37 10° NNW 22:07:48 67° WSW 22:08:30 59° SSW
Cosmos 2228 3.3 22:08:23 63° NW 22:08:23 63° NW 22:12:22 10° N
H-2A R/B 2.6 22:12:09 51° W 22:12:09 51° W 22:15:59 10° NNW
Cosmos 540 Rocket 3.4 22:12:07 74° SW 22:12:33 82° WNW 22:17:42 10° NNE
SPOT 1/Viking Rocket 3.6 22:13:18 68° NE 22:13:18 68° NE 22:18:09 10° N
Cosmos 332 Rocket 4.1 22:17:01 62° WSW 22:17:29 66° WNW 22:22:24 10° NNE
Cosmos 371 Rocket 4.3 22:20:55 39° NNE 22:20:55 39° NNE 22:23:56 10° NNE
ARGOS 3.1 22:20:24 71° NE 22:20:24 71° NE 22:25:26 10° N
MetOp-B 4.4 22:25:40 60° WSW 22:26:01 61° WSW 22:31:20 10° NNW
USA 245 4.4 22:26:45 72° SSW 22:27:25 82° WSW 22:33:42 10° NNW
NOAA 11 4.2 22:29:45 78° NNW 22:29:45 78° NNW 22:34:51 10° NNW
Cosmos 1844 Rocket 4.3 22:25:07 10° N 22:28:41 22° NE 22:28:41 22° NE
SL-16 R/B 2.9 22:25:03 10° SW 22:30:33 51° WNW 22:36:05 10° NNE
BREEZE-M TANK 4.3 22:27:01 10° WNW 22:31:15 28° WSW 22:31:15 28° WSW
Cosmos 372 Rocket 4.4 22:28:42 10° NNW 22:33:14 59° WNW 22:33:14 59° WNW
SPOT 5 3.9 22:36:37 38° W 22:36:38 38° W 22:41:04 10° NNW
Cosmos 2360 Rocket 3.3 22:42:34 33° NNE 22:42:34 33° NNE 22:45:39 10° NNE
Cosmos 2346 Rocket 4.4 22:33:47 10° N 22:39:53 82° WNW 22:39:53 82° WNW
Terra 3.4 22:47:05 29° N 22:47:05 29° N 22:49:33 10° N
Cosmos 2263 Rocket 3.2 22:57:46 10° NW 23:02:03 41° WNW 23:02:03 41° WNW
Cosmos 2322 Rocket 4.4 23:11:13 10° WSW 23:15:33 22° NW 23:19:53 10° N
BREEZE-M DEB (TANK) 4.5 23:12:12 10° W 23:17:27 34° WNW 23:17:27 34° WNW
H-2A R/B 3.9 23:35:08 25° NW 23:35:08 25° NW 23:37:24 10° NNW
USA 215 3.7 23:39:52 55° NNW 23:39:52 55° NNW 23:44:59 10° NW
